TimeEDT,TemperatureF,Dew PointF,Humidity,Sea Level PressureIn,VisibilityMPH,Wind Direction,Wind SpeedMPH,Gust SpeedMPH,PrecipitationIn,Events,Conditions,WindDirDegrees,DateUTC
12:28 AM,77.0,77.0,100,30.01,10.0,South,15.0,-,N/A,,Partly Cloudy,180,2013-06-08 04:28:00
12:53 AM,77.0,77.0,100,30.01,10.0,South,12.7,-,N/A,,Partly Cloudy,180,2013-06-08 04:53:00
1:53 AM,75.9,75.0,97,29.99,10.0,SSW,8.1,-,N/A,,Clear,210,2013-06-08 05:53:00
2:53 AM,75.0,75.0,100,29.98,10.0,West,3.5,-,N/A,,Clear,260,2013-06-08 06:53:00
3:53 AM,75.0,75.0,100,29.98,10.0,Calm,Calm,-,N/A,,Clear,0,2013-06-08 07:53:00
4:53 AM,73.9,73.9,100,30.00,10.0,East,4.6,-,N/A,,Scattered Clouds,100,2013-06-08 08:53:00
5:53 AM,75.0,75.0,100,30.01,10.0,Calm,Calm,-,N/A,,Mostly Cloudy,0,2013-06-08 09:53:00
6:53 AM,75.0,75.0,100,30.03,10.0,Calm,Calm,-,N/A,,Mostly Cloudy,0,2013-06-08 10:53:00
7:21 AM,75.2,75.2,100,30.03,2.0,Calm,Calm,-,0.05,Rain,Rain,0,2013-06-08 11:21:00
7:29 AM,75.2,75.2,100,30.04,10.0,Calm,Calm,-,0.05,Rain,Light Rain,0,2013-06-08 11:29:00
7:53 AM,77.0,77.0,100,30.05,10.0,Calm,Calm,-,0.05,,Overcast,0,2013-06-08 11:53:00
8:53 AM,81.0,78.1,91,30.07,10.0,South,10.4,-,N/A,,Mostly Cloudy,170,2013-06-08 12:53:00
9:53 AM,82.0,78.1,88,30.07,10.0,SSE,10.4,-,N/A,,Overcast,160,2013-06-08 13:53:00
10:53 AM,82.0,78.1,88,30.08,10.0,South,9.2,-,0.00,,Mostly Cloudy,170,2013-06-08 14:53:00
11:53 AM,84.0,80.1,88,30.09,10.0,SE,12.7,-,N/A,,Mostly Cloudy,140,2013-06-08 15:53:00
12:53 PM,86.0,80.1,82,30.09,10.0,SSE,11.5,-,N/A,,Mostly Cloudy,160,2013-06-08 16:53:00
1:53 PM,86.0,81.0,85,30.06,10.0,SE,15.0,20.7,N/A,,Mostly Cloudy,140,2013-06-08 17:53:00
2:53 PM,86.0,79.0,79,30.04,10.0,SE,16.1,-,N/A,,Mostly Cloudy,140,2013-06-08 18:53:00
3:53 PM,84.9,77.0,77,30.03,10.0,SE,12.7,-,N/A,,Mostly Cloudy,140,2013-06-08 19:53:00
4:53 PM,82.9,78.1,85,30.05,10.0,SE,10.4,-,N/A,,Unknown,140,2013-06-08 20:53:00
5:53 PM,82.9,79.0,88,30.05,10.0,SSE,9.2,-,N/A,,Unknown,150,2013-06-08 21:53:00
6:53 PM,82.9,80.1,91,30.06,10.0,ESE,6.9,-,N/A,,Mostly Cloudy,120,2013-06-08 22:53:00
7:53 PM,82.0,80.1,94,30.07,10.0,ESE,6.9,-,N/A,,Mostly Cloudy,110,2013-06-08 23:53:00
8:53 PM,82.0,80.1,94,30.08,10.0,East,9.2,-,N/A,,Unknown,100,2013-06-09 00:53:00
9:53 PM,81.0,79.0,94,30.09,10.0,ESE,10.4,-,N/A,,Unknown,110,2013-06-09 01:53:00
10:53 PM,81.0,79.0,94,30.11,10.0,ESE,9.2,-,N/A,,Unknown,110,2013-06-09 02:53:00
11:53 PM,81.0,78.1,91,30.12,10.0,ESE,10.4,-,N/A,,Unknown,110,2013-06-09 03:53:00